EW3060 Weather Reports


time (UTC)temp
F
wind
direction
speed
knots
gust
knots
rain 1hr
in
rain 24hr
in
rain mn
in
humidity
%
barometer
mb
20260903193056 76 204 0.9 2.6 0.00 0.00 0.00 29 1005.0
20260903191559 77 206 0.9 2.6 0.00 0.00 0.00 30 1005.1
20260903190051 77 201 0.0 1.7 0.00 0.00 0.00 30 1005.2
20260903184556 76 185 0.0 2.6 0.00 0.00 0.00 32 1005.4
20260903183056 76 197 0.9 2.6 0.00 0.00 0.00 30 1005.7
20260903181547 75 204 0.9 2.6 0.00 0.00 0.00 29 1005.7
20260903180052 75 212 0.9 1.7 0.00 0.00 0.00 28 1005.8
20260903174547 75 189 0.9 1.7 0.00 0.00 0.00 25 1005.7
20260903173046 75 191 0.0 1.7 0.00 0.00 0.00 24 1005.7
20260903171544 75 212 0.0 1.7 0.00 0.00 0.00 22 1005.7
20260903170042 74 236 0.0 1.7 0.00 0.00 0.00 24 1005.7
20260903164539 73 193 0.0 0.0 0.00 0.00 0.00 26 1005.7
20260903163041 71 256 0.0 0.0 0.00 0.00 0.00 32 1005.7
20260903161533 70 243 0.0 0.0 0.00 0.00 0.00 34 1005.9
20260903160030 69 258 0.0 0.0 0.00 0.00 0.00 35 1005.9
20260903154528 68 258 0.0 0.9 0.00 0.00 0.00 37 1005.9
20260903153024 67 251 0.0 2.6 0.00 0.00 0.00 39 1005.8
20260903151521 66 253 0.0 0.9 0.00 0.00 0.00 43 1005.8
20260903150021 64 253 0.0 0.9 0.00 0.00 0.00 45 1005.7
20260903144518 63 264 0.0 0.0 0.00 0.00 0.00 49 1005.7
20260903143035 61 264 0.0 0.0 0.00 0.00 0.00 50 1005.6
20260903141515 60 270 0.0 0.0 0.00 0.00 0.00 52 1005.4
20260903140022 59 264 0.0 0.0 0.00 0.00 0.00 53 1005.4
20260903134512 58 255 0.0 0.0 0.00 0.00 0.00 51 1005.4
20260903133014 59 256 0.0 0.0 0.00 0.00 0.00 48 1005.2
20260903131507 61 253 0.0 0.0 0.00 0.00 0.00 43 1005.2
20260903130008 61 254 0.0 0.0 0.00 0.00 0.00 42 1005.0
20260903124506 62 236 0.0 0.0 0.00 0.00 0.00 41 1005.1
20260903123005 63 261 0.0 0.0 0.00 0.00 0.00 37 1005.0
20260903121504 63 227 0.0 0.0 0.00 0.00 0.00 31 1004.9
20260903120003 63 236 0.0 0.0 0.00 0.00 0.00 33 1005.0
20260903114502 63 216 0.0 0.9 0.00 0.00 0.00 35 1005.1
20260903113100 63 222 0.0 0.0 0.00 0.00 0.00 34 1005.1
20260903111607 62 234 0.0 0.9 0.00 0.00 0.00 37 1005.1
20260903110058 62 238 0.0 0.0 0.00 0.00 0.00 42 1005.2
20260903104556 61 237 0.0 0.0 0.00 0.00 0.00 45 1005.3
20260903103056 60 268 0.0 0.0 0.00 0.00 0.00 47 1005.5
20260903101557 60 265 0.0 0.0 0.00 0.00 0.00 50 1005.6
20260903100054 61 264 0.0 0.0 0.00 0.00 0.00 50 1005.7
20260903094551 61 263 0.0 0.0 0.00 0.00 0.00 47 1005.8
20260903093047 61 268 0.0 1.7 0.00 0.00 0.00 45 1006.0
20260903091544 61 276 0.0 0.0 0.00 0.00 0.00 48 1006.1
20260903090043 61 270 0.0 0.0 0.00 0.00 0.00 46 1006.2
20260903084542 61 276 0.0 0.0 0.00 0.00 0.00 44 1006.4
20260903083046 62 280 0.0 0.0 0.00 0.00 0.00 42 1006.5
20260903081537 62 281 0.0 0.0 0.00 0.00 0.00 41 1006.4
20260903080038 61 295 0.0 0.0 0.00 0.00 0.00 43 1006.6
20260903074532 62 271 0.0 0.0 0.00 0.00 0.00 41 1006.7
20260903073032 64 233 0.0 0.9 0.00 0.00 0.00 25 1006.7
20260903071527 64 243 0.0 0.0 0.00 0.00 0.00 27 1006.7
20260903070023 65 251 0.0 0.0 0.00 0.00 0.00 27 1006.8
20260903064528 64 248 0.0 0.0 0.00 0.00 0.00 33 1006.7
20260903063023 65 255 0.0 0.9 0.00 0.00 0.00 38 1006.8
20260903061524 65 244 0.0 0.0 0.00 0.00 0.00 38 1006.8
20260903060021 65 237 0.0 0.0 0.00 0.00 0.00 39 1006.9
20260903054521 65 216 0.0 0.0 0.00 0.00 0.00 38 1007.0
20260903053021 66 222 0.0 0.0 0.00 0.00 0.00 39 1007.1
20260903051520 66 208 0.0 0.9 0.00 0.00 0.00 38 1007.1
20260903050020 67 208 0.0 1.7 0.00 0.00 0.00 37 1007.1
20260903044521 68 228 0.0 0.9 0.00 0.00 0.00 33 1007.1
20260903043019 68 233 0.0 0.0 0.00 0.00 0.00 31 1007.0
20260903041519 69 239 0.0 0.9 0.00 0.00 0.00 31 1006.9
20260903040018 68 266 0.0 0.9 0.00 0.00 0.00 34 1006.8
20260903034524 69 245 0.0 0.9 0.00 0.00 0.00 36 1006.6
20260903033017 70 359 0.0 1.7 0.00 0.00 0.00 34 1006.3
20260903031517 71 359 0.0 1.7 0.00 0.00 0.00 31 1006.0
20260903030017 71 359 0.0 1.7 0.00 0.00 0.00 30 1005.8
20260903024516 72 359 0.0 1.7 0.00 0.00 0.00 31 1005.7
20260903023016 72 359 0.0 1.7 0.00 0.00 0.00 33 1005.8
20260903021520 72 359 0.0 1.7 0.00 0.00 0.00 33 1005.7
20260903020028 73 224 0.0 1.7 0.00 0.00 0.00 33 1005.9
20260903014514 74 218 0.9 2.6 0.00 0.00 0.00 32 1005.8
20260903013013 75 175 0.9 2.6 0.00 0.00 0.00 29 1005.7
20260903011513 75 195 0.9 4.3 0.00 0.00 0.00 26 1005.8
20260903010013 76 188 0.9 5.2 0.00 0.00 0.00 23 1005.7
20260903004512 77 189 0.9 5.2 0.00 0.00 0.00 24 1005.6
20260903003012 77 204 1.7 7.0 0.00 0.00 0.00 21 1005.5
20260903001512 77 182 0.9 2.6 0.00 0.00 0.00 24 1005.4
20260903000011 78 180 0.9 2.6 0.00 0.00 0.00 25 1005.4
20260902234516 78 224 0.9 3.5 0.00 0.00 0.00 26 1005.5
20260902233013 78 213 0.9 2.6 0.00 0.00 0.00 25 1005.6
20260902231515 78 187 0.9 4.3 0.00 0.00 0.00 25 1005.6
20260902230007 78 179 1.7 3.5 0.00 0.00 0.00 27 1005.6
20260902224507 79 156 0.9 5.2 0.00 0.00 0.00 24 1005.7
20260902223005 79 198 0.9 2.6 0.00 0.00 0.00 23 1006.0
20260902221505 79 233 0.9 2.6 0.00 0.00 0.00 20 1006.2
20260902220004 79 191 0.9 3.5 0.00 0.00 0.00 18 1006.3
20260902214501 79 190 0.9 2.6 0.00 0.00 0.00 18 1006.5
20260902213104 79 200 0.9 2.6 0.00 0.00 0.00 20 1006.6
20260902211607 79 201 0.9 3.5 0.00 0.00 0.00 21 1006.7
20260902210057 78 166 0.9 2.6 0.00 0.00 0.00 20 1006.8
20260902204555 78 158 0.9 7.8 0.00 0.00 0.00 20 1006.9
20260902203054 78 187 0.9 2.6 0.00 0.00 0.00 20 1007.1
20260902201601 78 187 0.9 3.5 0.00 0.00 0.00 19 1007.1
20260902200051 79 191 0.9 1.7 0.00 0.00 0.00 18 1007.2
20260902194553 78 228 0.9 2.6 0.00 0.00 0.00 15 1007.3